Station LOPW1 - 9440422 - Longview, WA Image indicating link to RSS feed of recent meteorological observations for station LOPW1


Conditions at LOPW1 as of
(9:48 am PDT)
1648 GMT on 05/22/2024:
     

Click on the graph icon in the table below to see a time series plot of the last five days of that observation.

5-day plot - Water Temperature Water Temperature (WTMP): 57.0 °F
NOS Water Level Observation Network Water Level
Previous observations
TIME
(PDT)
5-day plot - Wind Direction
WDIR
 
5-day plot - Wind Speed
WSPD
kts
5-day plot - Wind Gust
GST
kts
5-day plot - Wave Height
WVHT
ft
5-day plot - Dominant Wave Period
DPD
sec
5-day plot - Average Wave Period
APD
sec
5-day plot - Mean Wave Direction
MWD
 
5-day plot - Atmospheric Pressure
PRES
in
5-day plot - Pressure Tendency
PTDY
in
5-day plot - Air Temperature
ATMP
°F
5-day plot - Water Temperature
WTMP
°F
5-day plot - Dew Point
DEWP
°F
5-day plot - Salinity
SAL
psu
5-day plot - Visibility
VIS
nmi
5-day plot - Tide (above MLLW)
TIDE
ft
2024-05-22 09:42 am---------- 57.0----
2024-05-22 09:36 am---------- 57.0----
2024-05-22 09:30 am---------- 57.0----
2024-05-22 09:24 am---------- 57.0----
2024-05-22 09:18 am---------- 57.0----
2024-05-22 09:12 am---------- 57.0----
2024-05-22 09:06 am---------- 57.0----
2024-05-22 09:00 am-------29.96+0.01- 57.0----
2024-05-22 08:54 am-------29.97-- 57.0----
2024-05-22 08:48 am-------29.97-- 57.0----
2024-05-22 08:42 am-------29.97-- 57.0----
2024-05-22 08:36 am-------29.97-- 57.0----
2024-05-22 08:30 am-------29.97-- 57.0----
2024-05-22 08:24 am-------29.96-- 57.0----
2024-05-22 08:18 am-------29.96-- 57.0----
2024-05-22 08:12 am-------29.96-- 57.0----
2024-05-22 08:06 am-------29.96-- 57.0----
2024-05-22 08:00 am-------29.96+0.00- 57.0----
2024-05-22 07:54 am-------29.96-- 57.0----
2024-05-22 07:48 am-------29.96-- 57.0----
2024-05-22 07:42 am-------29.96-- 57.0----
2024-05-22 07:36 am-------29.96-- 57.0----
2024-05-22 07:30 am-------29.96-- 57.0----
2024-05-22 07:24 am-------29.96-- 57.2----
2024-05-22 07:18 am-------29.96-- 57.2----
2024-05-22 07:12 am-------29.96-- 57.2----
2024-05-22 07:06 am-------29.96-- 57.2----
2024-05-22 07:00 am-------29.96-0.02- 57.4----
2024-05-22 06:54 am-------29.96-- 57.4----
2024-05-22 06:48 am-------29.96-- 57.4----
2024-05-22 06:42 am-------29.96-- 57.6----
2024-05-22 06:36 am-------29.96-- 57.6----
2024-05-22 06:30 am-------29.96-- 57.7----
2024-05-22 06:24 am-------29.96-- 57.9----
2024-05-22 06:18 am-------29.96-- 57.9----
2024-05-22 06:12 am-------29.95-- 57.9----
2024-05-22 06:06 am-------29.95-- 58.1----
2024-05-22 06:00 am-------29.96-0.04- 58.1----
2024-05-22 05:54 am-------29.96-- 58.1----
2024-05-22 05:48 am-------29.96-- 58.3----
2024-05-22 05:42 am-------29.95-- 58.3----
2024-05-22 05:36 am-------29.95-- 58.3----
2024-05-22 05:30 am-------29.95-- 58.3----
2024-05-22 05:24 am-------29.94-- 58.3----
2024-05-22 05:18 am-------29.95-- 58.3----
2024-05-22 05:12 am-------29.96-- 58.3----
2024-05-22 05:06 am-------29.96-- 58.3----
2024-05-22 05:00 am-------29.97-0.02- 58.3----
2024-05-22 04:54 am-------29.97-- 58.3----
2024-05-22 04:48 am-------29.97-- 58.3----
2024-05-22 04:42 am-------29.98-- 58.3----
2024-05-22 04:36 am-------29.98-- 58.3----
2024-05-22 04:30 am-------29.98-- 58.3----
2024-05-22 04:24 am-------29.98-- 58.1----
2024-05-22 04:18 am-------29.98-- 58.1----
2024-05-22 04:12 am-------29.98-- 58.1----
2024-05-22 04:06 am-------29.98-- 58.1----
2024-05-22 04:00 am-------29.98+0.00- 58.1----
2024-05-22 03:54 am-------29.98-- 58.1----
2024-05-22 03:48 am-------29.97-- 58.1----
2024-05-22 03:42 am-------29.97-- 58.1----
2024-05-22 03:36 am-------29.98-- 58.1----
2024-05-22 03:30 am-------29.98-- 58.1----
2024-05-22 03:24 am-------29.98-- 58.1----
2024-05-22 03:18 am-------29.98-- 57.9----
2024-05-22 03:12 am-------30.00-- 57.9----
2024-05-22 03:06 am-------30.00-- 57.9----
2024-05-22 03:00 am-------29.99+0.03- 57.9----
2024-05-22 02:54 am-------29.99-- 57.7----
2024-05-22 02:48 am-------29.99-- 57.7----
2024-05-22 02:42 am-------29.99-- 57.7----
2024-05-22 02:36 am-------29.99-- 57.7----
2024-05-22 02:30 am-------29.99-- 57.7----
2024-05-22 02:24 am-------29.99-- 57.7----
2024-05-22 02:18 am-------29.99-- 57.7----
2024-05-22 02:12 am-------29.99-- 57.7----
2024-05-22 02:06 am-------29.99-- 57.6----
2024-05-22 02:00 am-------29.99+0.03- 57.6----
2024-05-22 01:54 am-------29.98-- 57.6----
2024-05-22 01:48 am-------29.98-- 57.6----
2024-05-22 01:42 am-------29.98-- 57.6----
2024-05-22 01:36 am-------29.98-- 57.6----
2024-05-22 01:30 am-------29.98-- 57.6----
2024-05-22 01:24 am-------29.98-- 57.4----
2024-05-22 01:18 am-------29.98-- 57.4----
2024-05-22 01:12 am-------29.98-- 57.4----
2024-05-22 01:06 am-------29.98-- 57.4----
2024-05-22 01:00 am-------29.98+0.02- 57.4----
2024-05-22 12:54 am-------29.98-- 57.2----
2024-05-22 12:48 am-------29.98-- 57.2----
2024-05-22 12:42 am-------29.98-- 57.2----
2024-05-22 12:36 am-------29.98-- 57.2----
2024-05-22 12:30 am-------29.98-- 57.2----
2024-05-22 12:24 am-------29.98-- 57.2----
2024-05-22 12:18 am-------29.97-- 57.2----
2024-05-22 12:12 am-------29.97-- 57.2----
2024-05-22 12:06 am-------29.97-- 57.2----
2024-05-22 12:00 am-------29.97+0.00- 57.2----
2024-05-21 11:54 pm-------29.96-- 57.2----
2024-05-21 11:48 pm-------29.97-- 57.2----
2024-05-21 11:42 pm-------29.96-- 57.2----
2024-05-21 11:36 pm-------29.96-- 57.2----
2024-05-21 11:30 pm-------29.96-- 57.2----
2024-05-21 11:24 pm-------29.96-- 57.2----
2024-05-21 11:18 pm-------29.96-- 57.2----
2024-05-21 11:12 pm-------29.96-- 57.2----
2024-05-21 11:06 pm-------29.96-- 57.2----
2024-05-21 11:00 pm-------29.96-0.01- 57.2----
2024-05-21 10:54 pm-------29.96-- 57.2----
2024-05-21 10:48 pm-------29.96-- 57.2----
2024-05-21 10:42 pm-------29.96-- 57.2----
2024-05-21 10:36 pm-------29.96-- 57.2----
2024-05-21 10:30 pm-------29.96-- 57.2----
2024-05-21 10:24 pm-------29.96-- 57.2----
2024-05-21 10:18 pm-------29.96-- 57.2----
2024-05-21 10:12 pm-------29.96-- 57.2----
2024-05-21 10:06 pm-------29.96-- 57.2----
2024-05-21 10:00 pm-------29.96-0.01- 57.2----
2024-05-21 09:54 pm-------29.96-- 57.2----
2024-05-21 09:48 pm-------29.96-- 57.2----
2024-05-21 09:42 pm-------29.96-- 57.2----
2024-05-21 09:36 pm-------29.97-- 57.2----
2024-05-21 09:30 pm-------29.97-- 57.2----
2024-05-21 09:24 pm-------29.96-- 57.2----
2024-05-21 09:18 pm-------29.96-- 57.2----
2024-05-21 09:12 pm-------29.96-- 57.2----
2024-05-21 09:06 pm-------29.96-- 57.2----
2024-05-21 09:00 pm-------29.96-0.04- 57.2----
2024-05-21 08:54 pm-------29.96-- 57.4----
2024-05-21 08:48 pm-------29.96-- 57.4----
2024-05-21 08:42 pm-------29.96-- 57.4----
2024-05-21 08:36 pm-------29.97-- 57.4----
2024-05-21 08:30 pm-------29.97-- 57.4----
2024-05-21 08:24 pm-------29.97-- 57.4----
2024-05-21 08:18 pm-------29.97-- 57.4----
2024-05-21 08:12 pm-------29.97-- 57.4----
2024-05-21 08:06 pm-------29.97-- 57.4----
2024-05-21 08:00 pm-------29.97-0.04- 57.4----
2024-05-21 07:54 pm-------29.97-- 57.4----
2024-05-21 07:48 pm-------29.97-- 57.4----
2024-05-21 07:42 pm-------29.97-- 57.4----
2024-05-21 07:36 pm-------29.97-- 57.4----
2024-05-21 07:30 pm-------29.97-- 57.4----
2024-05-21 07:24 pm-------29.97-- 57.4----
2024-05-21 07:18 pm-------29.97-- 57.4----
2024-05-21 07:12 pm-------29.98-- 57.4----
2024-05-21 07:06 pm-------29.98-- 57.4----
2024-05-21 07:00 pm-------29.98-0.07- 57.4----
2024-05-21 06:54 pm-------29.98-- 57.6----
2024-05-21 06:48 pm-------29.98-- 57.6----
2024-05-21 06:42 pm-------29.98-- 57.6----
2024-05-21 06:36 pm-------29.99-- 57.6----
2024-05-21 06:30 pm-------29.99-- 57.6----
2024-05-21 06:24 pm-------29.99-- 57.6----
2024-05-21 06:18 pm-------30.00-- 57.6----
2024-05-21 06:12 pm-------30.00-- 57.7----
2024-05-21 06:06 pm-------30.00-- 57.7----
2024-05-21 06:00 pm-------30.01-0.07- 57.7----
2024-05-21 05:54 pm-------30.01-- 57.7----
2024-05-21 05:48 pm-------30.01-- 57.7----
2024-05-21 05:42 pm-------30.01-- 57.7----
2024-05-21 05:36 pm-------30.01-- 57.7----
2024-05-21 05:30 pm-------30.01-- 57.7----
2024-05-21 05:24 pm-------30.01-- 57.7----
2024-05-21 05:18 pm-------30.01-- 57.9----
2024-05-21 05:12 pm-------30.01-- 57.9----
2024-05-21 05:06 pm-------30.01-- 57.9----
2024-05-21 05:00 pm-------30.01-0.09- 57.9----
2024-05-21 04:54 pm-------30.01-- 57.9----
2024-05-21 04:48 pm-------30.02-- 57.9----
2024-05-21 04:42 pm-------30.02-- 57.9----
2024-05-21 04:36 pm-------30.02-- 57.9----
2024-05-21 04:30 pm-------30.03-- 57.9----
2024-05-21 04:24 pm-------30.03-- 57.9----
2024-05-21 04:18 pm-------30.03-- 57.9----
2024-05-21 04:12 pm-------30.04-- 57.7----
2024-05-21 04:06 pm-------30.04-- 57.9----
2024-05-21 04:00 pm-------30.04-0.07- 57.9----
2024-05-21 03:54 pm-------30.05-- 57.9----
2024-05-21 03:48 pm-------30.05-- 57.7----
2024-05-21 03:42 pm-------30.06-- 57.7----
2024-05-21 03:36 pm-------30.06-- 57.7----
2024-05-21 03:30 pm-------30.06-- 57.7----
2024-05-21 03:24 pm-------30.07-- 57.7----
2024-05-21 03:18 pm-------30.07-- 57.7----
2024-05-21 03:12 pm-------30.07-- 57.7----
2024-05-21 03:06 pm-------30.07-- 57.7----
2024-05-21 03:00 pm-------30.08-0.06- 57.7----
2024-05-21 02:54 pm-------30.08-- 57.7----
2024-05-21 02:48 pm-------30.08-- 57.7----
2024-05-21 02:42 pm-------30.09-- 57.7----
2024-05-21 02:36 pm-------30.09-- 57.7----
2024-05-21 02:30 pm-------30.09-- 57.6----
2024-05-21 02:24 pm-------30.09-- 57.6----
2024-05-21 02:18 pm-------30.09-- 57.6----
2024-05-21 02:12 pm-------30.10-- 57.6----
2024-05-21 02:06 pm-------30.10-- 57.6----
2024-05-21 02:00 pm-------30.10-0.06- 57.6----
2024-05-21 01:54 pm-------30.10-- 57.6----
2024-05-21 01:48 pm-------30.10-- 57.6----
2024-05-21 01:42 pm-------30.10-- 57.6----
2024-05-21 01:36 pm-------30.11-- 57.6----
2024-05-21 01:30 pm-------30.11-------
2024-05-21 01:24 pm-------30.11-------
2024-05-21 01:18 pm-------30.11-- 57.6----
2024-05-21 01:12 pm-------30.11-- 57.6----
2024-05-21 01:06 pm-------30.12-- 57.6----
2024-05-21 01:00 pm-------30.12-0.05- 57.6----
2024-05-21 12:54 pm-------30.12-- 57.6----
2024-05-21 12:48 pm-------30.12-- 57.6----
2024-05-21 12:42 pm-------30.13-- 57.6----
2024-05-21 12:36 pm-------30.13-- 57.6----
2024-05-21 12:30 pm---------- 57.6----
2024-05-21 12:24 pm---------- 57.6----
2024-05-21 12:18 pm-------30.14-- 57.6----
2024-05-21 12:12 pm-------30.14-- 57.6----
2024-05-21 12:06 pm-------30.14-- 57.6----
2024-05-21 12:00 pm-------30.14-0.03- 57.6----
2024-05-21 11:54 am-------30.14-- 57.6----
2024-05-21 11:48 am-------30.14-- 57.6----
2024-05-21 11:42 am-------30.14-- 57.6----
2024-05-21 11:36 am-------30.15-- 57.4----
2024-05-21 11:30 am-------30.15-- 57.4----
2024-05-21 11:24 am-------30.15-- 57.4----
2024-05-21 11:18 am-------30.15-- 57.4----
2024-05-21 11:12 am-------30.15-- 57.4----
2024-05-21 11:06 am-------30.15-- 57.4----
2024-05-21 11:00 am-------30.15-0.03- 57.4----
2024-05-21 10:54 am-------30.16-- 57.4----
2024-05-21 10:48 am-------30.16-- 57.4----
2024-05-21 10:42 am-------30.16-- 57.4----
2024-05-21 10:36 am-------30.16-- 57.4----
2024-05-21 10:30 am-------30.16-- 57.4----
2024-05-21 10:24 am-------30.16-- 57.4----
2024-05-21 10:18 am-------30.16-- 57.4----
2024-05-21 10:12 am-------30.16-- 57.4----
2024-05-21 10:06 am-------30.16-- 57.4----
2024-05-21 10:00 am-------30.16-0.02- 57.4----
2024-05-21 09:54 am-------30.17-- 57.4----